STARLINK-34741, 65097

Orbit data source: Space-Track

STARLINK-34741, 65097 is a payload satellite owned by SpaceX/Seattle (US) in LEO that was launched on Mon, 04 Aug 2025 UTC via an FALCON 9 launch vehicle from the Air Force Eastern Test Range (AFETR). Payload-class satellites include a variety of spacecraft equipped with specific instruments for various scientific and technological missions. These include communications satellites like Starlink; space stations such as the ISS; scientific satellites like the Hubble; Earth observation satellites from companies like Planet Labs, Umbra, and HawkEye 360; GPS; miniature CubeSats for education and research; and military/defense satellites.

Loading next visibility...
Identifier
65097, 2025-167V
Orbit
LEO
Country
Flag of USUS
Related business
Manufacturer
SpaceX/Seattle
Mission
Operational Commercial Communications
Bus & Motor
STARLINK V2MO, Unknown motor
Mass
575 kg wet, ~530 kg dry
Launch date (UTC)
2025-08-04 (9 months ago)
Launch vehicle
FALCON 9
Launch site
Air Force Eastern Test Range (AFETR)
Object type
Payload
Rocket body
Debris
Shape & HBR
Box + 2 Pan, 17.7 m
Radar Cross Section
36.964 m², Large (>1 m²)

Expand to show TLE details & history
Last TLE update: 10 hours ago

TLE from 10 hours ago
0 STARLINK-34741
1 65097U 25167V   26127.28149748  .00027528  00000-0  63927-3 0  9993
2 65097  53.1600 113.5681 0001103  99.6017 260.5113 15.42182647 42460
Epoch: 2026-05-07T06:45Z
TLE epoch observation values (Epoch: 2026-05-07T06:45:21.382Z)
Latitude
-0.00006°
Longitude
147.09908°
Altitude
440.697 km
Speed
7.649 km/s
True Right ascension
07h 34m 16s
True Declination
0° 00' 00"
Sunlit
Object was in daylight at epoch
Visualization orbit readout
Latitude
Unknown
Longitude
Unknown
Altitude
Unknown
Speed
Unknown
Apparent Right ascension
Unknown
Apparent Declination
Unknown
Sunlit
N/A
Visualization observer readout
Local Sidereal Time
00:46:03
Azimuth
Unknown
Elevation
Unknown
Doppler factor
Unknown
Orbital elements
Apogee altitude
440.679 km
Perigee altitude
439.175 km
Semi-major axis
6,818.064 km
Eccentricity
0.00011
Inclination
53.16°
RAAN
113.5681°
Arg. of periapsis
99.6017°
True anomaly
260.49883°
Mean anomaly
260.5113°
Eccentric anomaly
260.50507°
Mean motion
3.85524 °/min
Orbital period
93.38 mins
BSTAR
0.00063927
Loading maneuver chart data...
Computing Atmospheric mass density...
Loading historical data...
Loading historical data...
Loading historical data...
Loading historical data...
Loading historical data...
Loading historical data...
Loading historical data...

Documentation

Showing up to 5 results
|